#timestamp,LO_Frequency,Hit,StdDev 
1536879615.4,286046999.9,N
1536879635.2,286047002.8,N
1536879655.1,286047002.3,N
1536879656.0,286047002.3,N
1536879675.8,286047002.4,N
1536879695.6,286047000.3,N
1536879715.5,286047000.2,N
1536879735.3,286047002.5,N
1536879755.2,286047003.2,N
1536879775.9,286047004.3,Y
1536879795.7,286047002.4,P
1536879815.6,286047002.5,P
1536879835.4,286046999.7,N
1536879855.2,286047002.1,N
1536879875.1,286047001.4,N
1536879876.0,286047001.4,N
1536879895.8,286047002.0,N
1536879915.7,286047002.0,N
1536879935.5,286047002.5,Y
1536879955.3,286046998.3,P
1536879975.2,286047001.1,N
1536879995.0,286047001.0,N
1536879995.9,286047001.0,N
1536880015.7,286046998.2,N
1536880035.6,286047000.4,N
1536880055.4,286046999.8,N
1536880075.3,286047000.6,N
1536880095.1,286046998.1,N
1536880096.0,286046998.1,N
1536880115.8,286046999.3,N
1536880135.7,286046999.0,N
1536880155.5,286046999.5,N
1536880175.3,286046998.5,N
1536880195.2,286046998.8,N
1536880215.0,286046999.3,N
1536880215.9,286046999.3,N
1536880235.8,286046998.2,N
1536880255.6,286046999.4,N
1536880275.4,286046998.1,N
1536880295.3,286047000.9,N
1536880315.1,286047000.9,N
1536880335.8,286047002.5,N
1536880355.7,286047002.8,N
1536880375.5,286047002.4,N
1536880395.4,286047004.3,N
1536880415.2,286047004.2,N
1536880435.0,286047004.1,N
1536880435.9,286047004.1,N
1536880455.8,286047001.7,N
1536880475.6,286047001.4,N
1536880495.4,286047003.7,N
1536880515.3,286047004.2,N
1536880535.1,286047003.5,N
1536880555.9,286047004.1,N
1536880575.7,286047004.2,N
1536880595.5,286047006.0,N
1536880615.4,286047001.4,N
1536880635.2,286047004.4,N
1536880655.0,286047004.0,N
1536880655.9,286047004.0,N
1536880675.8,286047002.9,N
1536880695.6,286047002.9,N
1536880715.5,286047005.5,N
1536880735.3,286047003.0,N
1536880755.1,286047005.9,N
1536880775.9,286047004.2,N
1536880795.7,286047001.7,N
1536880815.5,286047003.9,N
1536880835.4,286047004.2,N
1536880855.2,286047003.2,N
1536880875.1,286047005.5,Y
1536880876.0,286047005.5,P
1536880895.8,286046999.7,N
1536880915.6,286047001.0,N
1536880935.5,286046998.9,N
1536880955.3,286047001.1,N
1536880975.1,286046999.8,N
1536880995.9,286046998.6,N
1536881015.7,286047000.7,N
1536881035.6,286047000.6,N
1536881055.4,286047000.3,N
1536881075.2,286047000.6,N
1536881095.1,286047002.5,N
1536881096.0,286047002.5,N
1536881115.8,286047002.5,N
1536881135.7,286047002.1,N
1536881155.5,286047003.8,N
1536881175.3,286047003.8,N
1536881195.2,286047003.6,N
1536881215.9,286047001.5,N
1536881235.7,286047003.8,N
1536881255.6,286047002.9,N
1536881275.4,286047004.6,N
1536881295.3,286047004.7,N
1536881315.1,286047005.5,N
1536881316.0,286047005.5,N
1536881335.8,286047005.4,N
1536881355.7,286047003.2,N
1536881375.5,286047002.9,N
1536881395.3,286047002.9,N
1536881415.2,286047003.4,N
1536881435.0,286047002.9,N
1536881435.9,286047002.9,N
1536881455.8,286047005.9,Y
1536881475.6,286047004.0,P
1536881495.4,286047001.3,N
1536881515.3,286047003.8,P
1536881535.1,286047003.8,Y
1536881555.9,286047000.0,P
1536881575.7,286047000.2,N
1536881595.5,286047002.7,N
1536881615.4,286047001.6,N
1536881635.2,286047000.5,N
1536881655.0,286047000.6,N
1536881655.9,286047000.6,N
1536881675.8,286046998.1,N
1536881695.6,286047001.1,N
1536881715.5,286047001.2,N
1536881735.3,286047000.9,N
1536881755.1,286046998.7,N
1536881775.9,286047000.2,N
1536881795.7,286047001.4,N
1536881815.5,286047004.3,Y
1536881835.4,286047002.0,P
1536881855.2,286047003.9,P
1536881875.1,286047004.3,P
1536881876.0,286047004.3,N
1536881895.8,286047000.3,N
1536881915.6,286046998.6,N
1536881935.5,286046996.6,N
1536881955.3,286046997.7,N
1536881975.1,286046995.4,N
1536881995.9,286046995.9,N
1536882015.7,286046993.7,N
1536882035.6,286046993.8,N
1536882055.4,286046998.0,N
1536882075.2,286046998.0,N
1536882095.1,286046995.5,N
1536882096.0,286046995.5,N
1536882115.8,286046997.5,N
1536882135.6,286046997.3,N
1536882155.5,286046999.1,N
1536882175.3,286046999.1,N
1536882195.2,286046996.6,N
1536882215.9,286046999.1,N
1536882235.7,286046999.2,N
1536882255.6,286046998.3,N
1536882275.4,286047000.4,N
1536882295.2,286047002.5,N
1536882315.1,286047000.3,N
1536882316.0,286047000.3,N
1536882335.8,286047002.5,N
1536882355.7,286046999.9,N
1536882375.5,286047002.3,N
1536882395.3,286047000.8,N
1536882415.2,286047000.9,N
1536882435.0,286047000.7,N
1536882435.9,286047000.7,N
1536882455.8,286046998.1,N
1536882475.6,286046999.9,N
1536882495.4,286046999.9,N
1536882515.3,286047000.7,N
1536882535.1,286047001.2,N
1536882555.8,286047000.2,N
1536882575.7,286047001.7,N
1536882595.5,286047001.3,N
1536882615.4,286047001.3,N
1536882635.2,286047003.9,N
1536882655.0,286047003.4,N
1536882655.9,286047003.4,N
1536882675.8,286047003.3,N
1536882695.6,286047004.9,N
1536882715.5,286047004.8,N
1536882735.3,286047005.0,N
1536882755.1,286047005.7,Y
1536882775.9,286047001.3,P
1536882795.7,286047002.6,P
1536882815.5,286047002.4,P
1536882835.4,286047001.6,N
1536882855.2,286047004.1,Y
1536882875.1,286047002.2,P
1536882876.0,286047002.2,P
1536882895.8,286047001.4,P
1536882915.6,286047004.2,Y
1536882935.5,286047002.1,P
1536882955.3,286047001.9,P
1536882975.2,286047002.2,P
1536882995.9,286047002.8,Y
1536883015.7,286046998.2,P
1536883035.6,286047000.4,N
1536883055.4,286047002.3,N
1536883075.2,286047002.2,N
1536883095.1,286047000.1,N
1536883096.0,286047000.1,N
1536883115.8,286047000.4,N
1536883135.7,286047000.3,N
1536883155.5,286047000.7,N
1536883175.3,286047000.4,N
1536883195.2,286047002.8,N
